Location: ?????
(38.3715°N, 23.0573°E)
Time: 09:22:13
(UTC+00:00)

Lacrosse 5 rocket - Pass Details

Date: 03 August 2024
Orbit: 433 x 567 km, 57.0° (Epoch: 14 September)

Event Time Altitude Azimuth Distance (km) Brightness Sun altitude
Rises 22:57:40 0° 327° (NNW) 2,637 5.4 -34.2°
Reaches altitude 10° 23:00:10 10° 342° (NNW) 1,776 4.6 -34.1°
Enters shadow 23:01:08 15° 353° (N) 1,500 4.2 -34.1°
